Location: Grand Moustoir
(47.8355°N, 3.3120°W)
Time: 18:45:27
(UTC+00:00)

USA 215 - Pass Details

Date: 20 January 2020
Orbit: 1101 x 1107 km, 123.0° (Epoch: 06 February)

Event Time Altitude Azimuth Distance (km) Brightness Sun altitude
Rises 04:14:30 0° 113° (ESE) 3,916 6.9 -36.4°
Reaches altitude 10° 04:16:59 10° 112° (ESE) 2,959 6.1 -36.0°
Enters shadow 04:22:45 66° 73° (ENE) 1,194 3.5 -35.1°
